Flag for Russia Weather past 2 weeks in Kazan, Russia

Now
41 °F

Sunny.


Feels Like: 34 °F
Forecast: 34 / 52 °F
Wind: 13 mph from North

Location: Kazan'

Current Time: Sep 17, 2014 at 9:40:01 AM

Latest Report: Sep 17, 2014 at 9:00 AM


Visibility: 10 mi

Pressure: 30.15 "Hg

Humidity: 76%

Dew point: 34 °F

Location of KazanLocation

Historic Weather in Kazan — Graph

°F

Kazan temperature yesterday

Maximum temperature yesterday: 54 °F (at 1:00 PM)
Minimum temperature yesterday: 41 °F (at 10:00 PM)
Average temperature yesterday: 48 °F

Past Weeks' High & Low Weather Summary

 TemperatureHumidityPressure
High72 °F (Sep 12, 4:30 PM)100% (Sep 4, 4:00 AM)30.39 "Hg (Sep 4, 4:00 AM)
Low36 °F (Sep 17, 4:00 AM)39% (Sep 9, 2:00 PM)29.92 "Hg (Sep 6, 5:00 AM)
Average56 °F78%30.15 "Hg
* Reported Sep 2 8:00 AM — Sep 17 8:30 AM, Kazan, Weather by CustomWeather, © 2014

Note: Actual official high and low records may vary slightly from our data, if they occured in-between our weather recording intervals... More about our weather records

Advertising

Kazan weather history for previous 24 hours

 ConditionsComfort  
Time TempWeatherWind HumidityBarometerVisibility
8:30 AM
Sep 17
41 °FSunny.10 mph76%30.15 "Hg10 mi
8:00 AM37 °FSunny.13 mph87%30.15 "Hg10 mi
7:30 AM37 °FSunny.13 mph87%30.15 "Hg10 mi
7:00 AM36 °FClear.10 mph93%30.15 "Hg10 mi
6:30 AM36 °FClear.6 mph93%30.15 "Hg10 mi
6:00 AM36 °FClear.6 mph87%30.15 "Hg10 mi
5:30 AM36 °FClear.8 mph87%30.12 "Hg10 mi
5:00 AM36 °FClear.6 mph93%30.12 "Hg10 mi
4:30 AM36 °FClear.8 mph93%30.12 "Hg10 mi
4:00 AM36 °FClear.8 mph93%30.12 "Hg10 mi
3:30 AM37 °FClear.8 mph87%30.12 "Hg10 mi
3:00 AM37 °FClear.8 mph87%30.12 "Hg10 mi
2:30 AM37 °FClear.8 mph87%30.12 "Hg10 mi
2:00 AM37 °FClear.8 mph87%30.12 "Hg10 mi
1:30 AM39 °FClear.8 mph81%30.12 "Hg10 mi
1:00 AM39 °FClear.10 mph81%30.12 "Hg10 mi
12:30 AM39 °FClear.10 mph81%30.12 "Hg10 mi
12:00 AM39 °FClear.10 mph81%30.12 "Hg10 mi
11:30 PM
Sep 16
41 °FClear.13 mph76%30.12 "Hg10 mi
11:00 PM41 °FClear.13 mph76%30.12 "Hg10 mi
10:30 PM41 °FClear.10 mph76%30.09 "Hg10 mi
10:00 PM41 °FClear.8 mph76%30.09 "Hg10 mi
9:30 PM43 °FClear.10 mph71%30.09 "Hg10 mi
9:00 PM43 °FClear.10 mph71%30.09 "Hg10 mi
8:30 PM43 °FClear.10 mph71%30.07 "Hg10 mi
8:00 PM43 °FClear.10 mph76%30.07 "Hg10 mi
7:30 PM45 °FPassing clouds.10 mph76%30.07 "HgN/A
7:00 PM45 °FPassing clouds.13 mph71%30.04 "HgN/A
6:30 PM46 °FPartly sunny.20 mph66%30.04 "HgN/A
6:00 PM48 °FPartly sunny.20 mph62%30.04 "HgN/A
5:30 PM46 °FPartly sunny.26 mph71%30.01 "HgN/A
5:00 PM52 °FScattered clouds.20 mph54%29.98 "HgN/A
4:30 PM50 °FScattered clouds.20 mph58%29.98 "HgN/A
3:30 PM46 °FPartly sunny.22 mph76%29.98 "HgN/A
3:00 PM54 °FPartly sunny.22 mph58%29.95 "HgN/A
2:30 PM52 °FPartly sunny.24 mph62%29.95 "HgN/A
2:00 PM52 °FPartly sunny.29 mph62%29.95 "HgN/A
1:30 PM54 °FPartly sunny.22 mph51%29.92 "HgN/A
1:00 PM54 °FPartly sunny.20 mph54%29.92 "HgN/A
12:30 PM52 °FPartly sunny.20 mph54%29.92 "HgN/A
12:00 PM52 °FPartly sunny.20 mph62%29.92 "HgN/A
11:30 AM52 °FPartly sunny.24 mph67%29.95 "HgN/A
11:00 AM52 °FPartly sunny.17 mph67%29.95 "HgN/A
10:30 AM52 °FPartly sunny.17 mph67%29.95 "HgN/A
10:00 AM52 °FPassing clouds.13 mph67%29.95 "HgN/A
9:30 AM50 °FPassing clouds.13 mph71%29.95 "HgN/A
9:00 AM48 °FPassing clouds.10 mph76%29.98 "HgN/A
Weather by CustomWeather, © 2014

See weather overviewHow to use our weather pages